Weather History for KSNA - February, 2012

Change the Weather History Date:

Thursday, February 16, 2012

  Actual Average Record
Temperature  
Mean Temperature 57 °F 57 °F  
Max Temperature 72 °F 66 °F 81 °F (2007)
Min Temperature 42 °F 49 °F 42 °F (2012)
Degree Days  
Heating Degree Days 8 8  
Month to date heating degree days 93 128  
Since 1 July heating degree days 710 820  
Cooling Degree Days 0 0  
Month to date cooling degree days 2 0  
Year to date cooling degree days 15 5  
Growing Degree Days 6 (Base 50)    
Moisture  
Dew Point 32 °F    
Average Humidity 54    
Maximum Humidity 89    
Minimum Humidity 19    
Precipitation  
Precipitation 0.01 in 0.13 in 0.38 in (2009)
Month to date precipitation 0.28 1.46  
Year to date precipitation 1.22 4.37  
Since 1 July precipitation 3.67 8.74  
Snow  
Snow 0.00 in - - ()
Month to date snowfall 0.0  
Year to date snowfall 0.0  
Since 1 July snowfall 0.0  
Snow Depth 0.00 in    
Sea Level Pressure  
Sea Level Pressure 30.05 in    
Wind  
Wind Speed 7 mph (North)    
Max Wind Speed 30 mph    
Max Gust Speed 41 mph    
Visibility 10 miles    
Events      
T = Trace of Precipitation, MM = Missing Value Source: NWS Daily Summary

Daily Weather History Graph

Daily Weather History Graph

Search for Another Location

Airport or City:

Trip Planner

Search our weather history database for the weather conditions in past years. The results will help you decide how hot, cold, wet, or windy it might be!

Date:

Astronomy

Feb. 16, 2012 Rise Set
Actual Time 6:35 AM PST 5:36 PM PST
Civil Twilight 6:09 AM PST 6:01 PM PST
Nautical Twilight 5:40 AM PST 6:31 PM PST
Astronomical Twilight 5:11 AM PST 7:00 PM PST
Moon 2:26 AM PST (2/16) 12:42 PM PST (2/16)
Length of Visible Light 11h 52m
Length of Day
11h 01m
Waning Crescent, 27% of the Moon is Illuminated
Feb 16
Waning Crescent
Feb 21
New
Feb 29
First Quarter
Mar 8
Full
Mar 14
Last Quarter

Hourly Weather History & Observations

Time (PST) Temp. Dew Point Humidity Pressure Visibility Wind Dir Wind Speed Gust Speed Precip Events Conditions
12:53 AM 45.0 °F 41.0 °F 86% 29.99 in 10.0 mi Calm Calm - N/A   Clear
1:53 AM 44.1 °F 41.0 °F 89% 30.00 in 10.0 mi Calm Calm - N/A   Clear
2:53 AM 43.0 °F 39.9 °F 89% 29.98 in 10.0 mi Calm Calm - N/A   Clear
3:53 AM 42.1 °F 39.0 °F 89% 30.00 in 10.0 mi Calm Calm - N/A   Clear
4:53 AM 44.1 °F 39.9 °F 85% 30.01 in 10.0 mi Calm Calm - N/A   Clear
5:53 AM 43.0 °F 37.9 °F 82% 30.03 in 10.0 mi Calm Calm - N/A   Clear
6:53 AM 44.1 °F 37.9 °F 79% 30.05 in 10.0 mi Calm Calm - N/A   Partly Cloudy
7:53 AM 54.0 °F 37.0 °F 53% 30.06 in 10.0 mi Calm Calm - N/A   Partly Cloudy
8:53 AM 59.0 °F 35.1 °F 41% 30.07 in 10.0 mi NNW 11.5 mph 17.3 mph N/A   Partly Cloudy
9:53 AM 63.0 °F 33.1 °F 33% 30.07 in 10.0 mi NNE 13.8 mph 18.4 mph N/A   Partly Cloudy
10:53 AM 66.0 °F 30.9 °F 27% 30.06 in 10.0 mi North 11.5 mph 19.6 mph N/A   Partly Cloudy
11:53 AM 69.1 °F 28.9 °F 22% 30.04 in 10.0 mi NE 19.6 mph 32.2 mph 0.01 in   Partly Cloudy
12:53 PM 69.1 °F 28.9 °F 22% 30.03 in 10.0 mi NE 26.5 mph 36.8 mph N/A   Partly Cloudy
1:53 PM 71.1 °F 28.9 °F 21% 30.05 in 10.0 mi NE 10.4 mph 19.6 mph N/A   Partly Cloudy
2:53 PM 71.1 °F 27.0 °F 19% 30.04 in 10.0 mi North 15.0 mph 27.6 mph N/A   Partly Cloudy
3:53 PM 71.6 °F 26.6 °F 19% 30.05 in 10.0 mi NNE 10.4 mph 27.6 mph N/A   Partly Cloudy
4:53 PM 70.0 °F 25.0 °F 18% 30.04 in 10.0 mi North 11.5 mph - N/A   Partly Cloudy
5:53 PM 68.0 °F 26.1 °F 21% 30.06 in 10.0 mi NW 3.5 mph - N/A   Partly Cloudy
6:53 PM 64.9 °F 26.1 °F 23% 30.08 in 10.0 mi Calm Calm - N/A   Partly Cloudy
7:53 PM 64.0 °F 28.9 °F 27% 30.08 in 10.0 mi WSW 3.5 mph - N/A   Partly Cloudy
8:53 PM 68.0 °F 19.9 °F 16% 30.09 in 10.0 mi Calm Calm - N/A   Partly Cloudy
9:53 PM 66.0 °F 21.9 °F 19% 30.10 in 10.0 mi North 5.8 mph - N/A   Partly Cloudy
10:53 PM 60.1 °F 30.9 °F 33% 30.12 in 10.0 mi Calm Calm - N/A   Partly Cloudy
11:53 PM 55.0 °F 36.0 °F 49% 30.11 in 10.0 mi Calm Calm - N/A   Clear